Location: Coopersdale
(40.3556°N, 78.9372°W)
Time: 22:17:09
(UTC+00:00)

Explorer 11/Cluster Stage 4 - Pass Details

Date: 29 January 2021
Orbit: 467 x 1257 km, 28.8° (Epoch: 25 February)

Event Time Altitude Azimuth Distance (km) Brightness Sun altitude
Rises 00:38:00 0° 231° (SW) 2,847 10.3 -24.5°
Reaches altitude 10° 00:40:37 10° 215° (SW) 2,065 9.2 -25.0°
Enters shadow 00:43:53 21° 172° (S) 1,621 8.1 -25.6°
